Regional Weather Roundup
Issued by NWS

Home | Current Version | Previous Version | Graphics & Text | Print | Product List | Glossary On
Versions: 1 2 3 4 5 6 7 8 9 10 11 12 13 14 15 16 17 18 19 20 21 22 23 24 25 26 27 28 29 30 31 32 33 34 35 36 37 38 39 40 41 42 43 44 45 46 47 48 49 50
762
ASUS43 KBIS 301702
RWRND

NORTH DAKOTA REGIONAL WEATHER ROUNDUP
NATIONAL WEATHER SERVICE BISMARCK ND
1200 PM CDT SUN APR 30 2017

NOTE: "FAIR" INDICATES FEW OR NO CLOUDS BELOW 12,000 FEET WITH NO
SIGNIFICANT WEATHER AND/OR OBSTRUCTIONS TO VISIBILITY.


NDZ001>003-009>011-017-301800-
NORTHWEST NORTH DAKOTA

CITY           SKY/WX    TMP DP  RH WIND       PRES   REMARKS
WILLISTON      FAIR      63  23  21 SW13G24   29.95F
MINOT          FAIR      64  21  19 SE7       29.97F
MINOT AFB      SUNNY     64  23  20 SW10      29.96F
$$

NDZ018>021-031>035-040>046-301800-
SOUTHWEST NORTH DAKOTA

CITY           SKY/WX    TMP DP  RH WIND       PRES   REMARKS
BISMARCK       FAIR      60  22  23 VRB5      30.01F
DICKINSON      FAIR      57  16  20 SW6       29.95F
GARRISON         N/A     58  23  26 CALM      29.97F
HETTINGER ARPT SUNNY     58  22  24 E10       29.99F
$$

NDZ004>008-012>016-024-026-027-054-301800-
NORTHEAST NORTH DAKOTA

CITY           SKY/WX    TMP DP  RH WIND       PRES   REMARKS
GRAND FORKS    MOSUNNY   57  27  31 SE8       30.08F
GRND FRKS AFB  SUNNY     56  27  33 SE10      30.08F
DEVILS LAKE    FAIR      57  25  29 E9        30.04F
$$

NDZ022-023-025-028>030-036>039-047>053-301800-
SOUTHEAST NORTH DAKOTA

CITY           SKY/WX    TMP DP  RH WIND       PRES   REMARKS
FARGO          MOSUNNY   58  20  22 E14       30.05F
JAMESTOWN      FAIR      56  25  30 E13       30.03F
$$





USA.gov is the U.S. government's official web portal to all federal, state and local government web resources and services.